Location: Blackwall
(51.5097°N, 0.0016°W)
Time: 02:51:00
(UTC+00:00)

Cosmos 2227 Rocket - Pass Details

Date: 15 May 2026
Orbit: 838 x 844 km, 71.0° (Epoch: 8 June)

Event Time Altitude Azimuth Distance (km) Brightness Sun altitude
Exits shadow 22:55:58 12° 109° (ESE) 2,323 4.2 -18.2°
Maximum altitude 22:57:13 13° 95° (E) 2,269 4.2 -18.3°
Drops below altitude 10° 22:59:37 10° 70° (ENE) 2,471 4.7 -18.4°
Sets 23:03:30 0° 44° (NE) 3,413 5.8 -18.5°
